[[{"header":{"parameterUnit":"m.s-1","parameterCategory":1,"la1":30.2991,"la2":30.254,"lo1":-89.0895,"lo2":-89.0444,"dy":0.0017,"dx":0.0017,"nx":28,"ny":28,"refTime":"2024-04-05T09:00:00:Z","depth":0,"parameterNumber":2,"parameterNumberName":"U-component_of_WINDS"},"data":[0,0,0,0,0,0,0,0,0,0,0,0,0,0,0,0,0,0,0,0,0,0,0,0,0,0,0,0,0,0,0,0,0,0,0,0,0,0,0,0,0,0,0,0,0,0,0,0,0,0,0,0,0,0,0,0,0,0,2.5169,2.5169,0,2.5184,2.5184,2.5184,2.5205,2.5205,2.5205,2.5206,2.5221,2.5221,2.5221,0,0,0,0,0,0,0,0,0,0,0,0,0,2.5163,2.5163,2.5169,2.5169,2.517,2.5184,2.5184,2.5184,2.5205,2.5205,2.5205,2.5206,2.5221,2.5221,2.5221,0,0,0,0,0,0,0,0,0,0,0,0,0,2.517,2.5163,2.5169,2.5182,2.5183,2.5184,2.5184,2.5184,2.5204,2.5205,2.5206,2.5206,2.5221,2.5221,2.5221,2.5211,0,0,2.5221,2.5221,0,0,0,0,0,0,0,0,2.517,2.517,2.518,2.5181,2.5182,2.5193,2.5187,2.5193,2.5204,2.5196,2.5206,2.5206,2.5211,2.5212,2.5213,2.5211,2.5212,2.5221,2.5221,2.5221,2.5221,0,0,0,0,0,0,0,2.5169,2.517,2.5175,2.518,2.5181,2.5187,2.5189,2.5188,2.52,2.5197,2.5199,2.52,2.5212,2.5213,2.5214,2.5212,2.5221,2.5221,2.5221,2.5221,2.5207,2.5206,0,0,0,0,0,0,2.5166,2.5169,2.5174,2.5175,2.5177,2.5187,2.5189,2.5189,2.52,2.5203,2.5199,2.5201,2.5213,2.5214,2.5214,2.5205,2.5221,2.5221,2.5221,2.5207,2.5206,2.5206,0,0,0,0,0,0,2.5166,2.5167,2.5174,2.5173,2.5174,2.5187,2.5186,2.5189,2.519,2.5202,2.5205,2.5198,2.5213,2.5214,2.5212,2.5206,2.5221,2.5221,2.5207,2.5207,2.5206,2.5186,0,0,0,0,0,0,2.5166,2.5166,2.5162,2.5172,2.5174,2.517,2.5186,2.5189,2.519,2.5192,2.5202,2.5204,2.5214,2.5212,2.5212,2.5206,2.5221,2.5208,2.5207,2.5206,2.5187,2.5184,2.5182,0,0,0,0,0,2.5166,2.5154,2.5161,2.5162,2.5168,2.517,2.5171,2.5182,2.519,2.5186,2.5194,2.5204,2.5207,2.5212,2.5212,2.5206,2.5208,2.5207,2.5206,2.5188,2.5185,2.5182,0,0,0,0,0,0,2.5141,2.5156,2.5164,2.5155,2.5161,2.5173,2.5168,2.5178,2.5181,2.5183,2.5197,2.5199,2.5196,2.5201,2.5206,2.5199,2.521,2.5209,2.5195,2.5192,2.519,2.5189,2.5221,0,0,0,0,0,2.5136,2.5135,2.5148,2.514,2.5142,2.5155,2.5156,2.5164,2.5171,2.5173,2.5181,2.5188,2.5191,2.5192,2.5195,2.5189,2.5192,2.5185,2.5183,2.5181,2.518,2.518,2.5177,2.5203,2.5203,2.5203,0,0,2.5122,2.513,2.5129,2.5135,2.514,2.5141,2.5157,2.5155,2.5156,2.5173,2.5172,2.5179,2.5187,2.5184,2.5182,2.5188,2.5174,2.518,2.5178,2.5178,2.5178,2.5176,2.5174,2.5202,2.5202,2.5202,0,0,2.5099,2.5104,2.5099,2.5105,2.5114,2.5123,2.5122,2.5134,2.5139,2.5138,2.5152,2.5154,2.5158,2.5164,2.5168,2.5152,2.5162,2.5153,2.514,2.514,2.5138,2.5136,2.5132,2.513,2.5152,2.5152,2.5152,0,2.5081,2.5081,2.5095,2.5094,2.5098,2.5115,2.5111,2.5116,2.5125,2.5128,2.5134,2.5142,2.5149,2.5148,2.5145,2.5147,2.5148,2.5151,2.5137,2.5135,2.5134,2.513,2.5128,2.515,2.5151,2.5151,2.5151,0,2.5061,2.5061,2.5056,2.5066,2.5069,2.5066,2.5081,2.5083,2.5093,2.5102,2.5103,2.5112,2.5119,2.512,2.5128,2.5122,2.5125,2.5134,2.5145,2.513,2.5127,2.5125,2.5149,2.5149,2.515,2.515,0,0,2.5019,2.5039,2.5037,2.5043,2.5056,2.5057,2.5057,2.5065,2.5067,2.5074,2.5075,2.508,2.509,2.5094,2.5104,2.5104,2.5094,2.5113,2.5114,2.511,2.5089,2.5082,2.508,2.5101,2.5101,2.51,2.5089,0,2.4998,2.4998,2.5012,2.5009,2.5011,2.5029,2.503,2.5039,2.5048,2.5053,2.5064,2.5068,2.5079,2.5082,2.5083,2.5094,2.5089,2.5096,2.5103,2.5103,2.51,2.5078,2.507,2.5058,2.5088,2.5087,2.5087,0,2.4972,2.498,2.4976,2.4993,2.4994,2.4994,2.5004,2.5007,2.5019,2.5027,2.5034,2.5046,2.505,2.5061,2.5066,2.507,2.5075,2.5082,2.5082,2.5082,2.5094,2.5079,2.5055,2.5053,2.5085,2.5085,2.5085,0,2.4943,2.4953,2.4953,2.4957,2.4976,2.4976,2.4984,2.4997,2.5001,2.5011,2.5014,2.5024,2.5029,2.5036,2.5052,2.5058,2.5057,2.5069,2.5064,2.5064,2.5062,2.5061,2.5038,2.5065,2.5065,2.5065,2.5065,0,2.4918,2.4916,2.494,2.494,2.4939,2.4957,2.4956,2.4966,2.4978,2.4982,2.4999,2.5002,2.5023,2.5029,2.5042,2.5046,2.5048,2.5055,2.5058,2.5053,2.5053,2.5056,2.5057,2.5065,2.5065,2.5065,2.5065,0,2.4885,2.4901,2.4902,2.4922,2.4927,2.4925,2.4942,2.4944,2.4957,2.4961,2.4963,2.4983,2.4992,2.5009,2.5022,2.5031,2.5032,2.5038,2.5028,2.503,2.5025,2.5025,2.5003,2.5002,2.5029,2.5028,2.5028,0,2.4867,2.4866,2.4886,2.489,2.4898,2.4903,2.4909,2.4928,2.4934,2.495,2.495,2.4961,2.497,2.4984,2.5,2.5011,2.5017,2.5009,2.5019,2.5015,2.5018,2.5018,2.5019,2.5006,2.5006,2.5005,2.5005,0,2.4835,2.4844,2.4851,2.4862,2.4869,2.4879,2.4889,2.4892,2.4914,2.492,2.4929,2.4936,2.4952,2.4962,2.4977,2.4987,2.5,2.5002,2.5002,2.4996,2.4991,2.4995,2.5022,2.5002,2.5002,2.5003,2.5003,2.5003,2.4809,2.481,2.4826,2.4834,2.4845,2.4855,2.4859,2.4873,2.4881,2.4895,2.4907,2.4916,2.4932,2.4953,2.4962,2.4971,2.4977,2.4976,2.4976,2.4976,2.4974,2.499,2.4974,2.4974,2.4974,2.4974,2.4974,0,2.4779,2.479,2.4798,2.4814,2.4821,2.4834,2.4848,2.4854,2.4862,2.4875,2.4885,2.4898,2.491,2.4928,2.4942,2.4946,2.4953,2.4949,2.4949,2.4951,2.4968,2.4967,2.4943,2.4943,2.4943,2.4943,2.4943,2.4943,2.4764,2.4767,2.4779,2.4789,2.4801,2.481,2.4817,2.4828,2.4839,2.4853,2.4863,2.4876,2.4892,2.4908,2.492,2.4926,2.493,2.4925,2.4932,2.4947,2.495,2.4952,2.4952,2.4926,2.4926,2.4915,2.4915,2.4915]},{"header":{"parameterUnit":"m.s-1","parameterCategory":1,"la1":30.2991,"la2":30.254,"lo1":-89.0895,"lo2":-89.0444,"dy":0.0017,"dx":0.0017,"nx":28,"ny":28,"refTime":"2024-04-05T09:00:00:Z","depth":0,"parameterNumber":3,"parameterNumberName":"V-component_of_WINDS"},"data":[0,0,0,0,0,0,0,0,0,0,0,0,0,0,0,0,0,0,0,0,0,0,0,0,0,0,0,0,0,0,0,0,0,0,0,0,0,0,0,0,0,0,0,0,0,0,0,0,0,0,0,0,0,0,0,0,0,0,-1.3139,-1.3138,0,-1.3034,-1.3033,-1.3031,-1.3125,-1.3129,-1.3133,-1.3136,-1.302,-1.3014,-1.3007,0,0,0,0,0,0,0,0,0,0,0,0,0,-1.3414,-1.3409,-1.3139,-1.3138,-1.3136,-1.3034,-1.3033,-1.3031,-1.3124,-1.3129,-1.3134,-1.3138,-1.3022,-1.3015,-1.3007,0,0,0,0,0,0,0,0,0,0,0,0,0,-1.33,-1.3407,-1.3139,-1.3171,-1.3173,-1.3034,-1.3033,-1.3031,-1.3123,-1.3129,-1.3135,-1.314,-1.3025,-1.3015,-1.3005,-1.2828,0,0,-1.2975,-1.2971,0,0,0,0,0,0,0,0,-1.3306,-1.329,-1.3167,-1.3168,-1.317,-1.3099,-1.3087,-1.2963,-1.3122,-1.3142,-1.3136,-1.3143,-1.3041,-1.303,-1.2998,-1.2823,-1.2818,-1.2974,-1.2968,-1.2964,-1.2961,0,0,0,0,0,0,0,-1.3314,-1.3295,-1.3097,-1.3165,-1.3167,-1.3188,-1.3178,-1.3064,-1.306,-1.314,-1.3147,-1.3134,-1.3043,-1.3007,-1.2995,-1.2816,-1.2974,-1.2965,-1.2959,-1.2955,-1.2492,-1.2486,0,0,0,0,0,0,-1.332,-1.3301,-1.3101,-1.3094,-1.3254,-1.3178,-1.3167,-1.3115,-1.3062,-1.3059,-1.3129,-1.3138,-1.3021,-1.3007,-1.2992,-1.2781,-1.2964,-1.2954,-1.2949,-1.2498,-1.2491,-1.2484,0,0,0,0,0,0,-1.3325,-1.3301,-1.3105,-1.3199,-1.3176,-1.3168,-1.3108,-1.311,-1.3075,-1.3053,-1.3052,-1.3093,-1.3025,-1.3006,-1.2869,-1.2778,-1.295,-1.2941,-1.2506,-1.2496,-1.2487,-1.2358,0,0,0,0,0,0,-1.3333,-1.3303,-1.3236,-1.3197,-1.3171,-1.2985,-1.3103,-1.3104,-1.3058,-1.307,-1.3019,-1.3016,-1.3028,-1.2884,-1.2859,-1.2768,-1.2933,-1.2514,-1.2502,-1.249,-1.2371,-1.2346,-1.2324,0,0,0,0,0,-1.3342,-1.3202,-1.3233,-1.3208,-1.3088,-1.298,-1.2964,-1.2983,-1.305,-1.2983,-1.297,-1.3018,-1.2793,-1.2869,-1.2842,-1.2746,-1.252,-1.2505,-1.2491,-1.2381,-1.235,-1.2325,0,0,0,0,0,0,-1.3227,-1.3197,-1.3231,-1.3074,-1.3029,-1.2996,-1.2911,-1.295,-1.2883,-1.2896,-1.292,-1.2908,-1.2764,-1.2742,-1.2827,-1.2573,-1.2667,-1.2647,-1.2592,-1.2563,-1.254,-1.2548,-1.2925,0,0,0,0,0,-1.3185,-1.3101,-1.3079,-1.2943,-1.2919,-1.2919,-1.2872,-1.2891,-1.2844,-1.2825,-1.2801,-1.2752,-1.2671,-1.2616,-1.2539,-1.2369,-1.2359,-1.229,-1.2267,-1.2248,-1.2229,-1.2138,-1.2107,-1.2437,-1.2438,-1.2438,0,0,-1.3093,-1.3067,-1.3012,-1.2919,-1.2886,-1.2798,-1.2902,-1.2803,-1.2738,-1.2809,-1.2679,-1.266,-1.2607,-1.2453,-1.2384,-1.243,-1.2136,-1.223,-1.2215,-1.2206,-1.212,-1.2089,-1.2061,-1.2428,-1.243,-1.2431,0,0,-1.2882,-1.2854,-1.2739,-1.2705,-1.2656,-1.2657,-1.2629,-1.259,-1.2581,-1.2452,-1.2505,-1.2426,-1.2284,-1.2245,-1.2206,-1.1983,-1.2024,-1.1957,-1.1835,-1.1745,-1.1719,-1.1696,-1.1616,-1.1587,-1.1939,-1.1939,-1.1939,0,-1.2774,-1.2646,-1.2673,-1.2572,-1.2529,-1.2594,-1.2475,-1.244,-1.2367,-1.2335,-1.2389,-1.2215,-1.2183,-1.2021,-1.1967,-1.1933,-1.1901,-1.1962,-1.1722,-1.1699,-1.1678,-1.1601,-1.1571,-1.1931,-1.1932,-1.1933,-1.1933,0,-1.2515,-1.2425,-1.2337,-1.2269,-1.2216,-1.2106,-1.2116,-1.2059,-1.2083,-1.2078,-1.1946,-1.1911,-1.1829,-1.1793,-1.1813,-1.1633,-1.1663,-1.1719,-1.1813,-1.1638,-1.1566,-1.1537,-1.192,-1.1922,-1.1925,-1.1927,0,0,-1.2226,-1.2177,-1.2144,-1.2114,-1.2066,-1.1995,-1.1889,-1.1812,-1.1762,-1.171,-1.162,-1.1501,-1.1553,-1.1509,-1.1527,-1.1448,-1.1274,-1.1514,-1.1513,-1.1469,-1.1072,-1.103,-1.0995,-1.1302,-1.1297,-1.1293,-1.1076,0,-1.2012,-1.183,-1.1853,-1.1677,-1.1594,-1.1656,-1.1563,-1.1522,-1.1515,-1.1442,-1.1434,-1.1349,-1.1424,-1.1398,-1.1324,-1.1311,-1.1194,-1.1327,-1.1217,-1.1213,-1.1227,-1.0958,-1.0913,-1.071,-1.1049,-1.1044,-1.1041,0,-1.1739,-1.1681,-1.1497,-1.1464,-1.143,-1.1346,-1.1278,-1.1208,-1.1163,-1.1164,-1.1116,-1.1148,-1.104,-1.1139,-1.0989,-1.1079,-1.1036,-1.1023,-1.1016,-1.1004,-1.1115,-1.0938,-1.0646,-1.0615,-1.0997,-1.1001,-1.1004,0,-1.1545,-1.1421,-1.1296,-1.1268,-1.1226,-1.1166,-1.1144,-1.1106,-1.1059,-1.0999,-1.0968,-1.0896,-1.0855,-1.0797,-1.0808,-1.088,-1.0655,-1.0755,-1.0651,-1.0651,-1.0599,-1.0602,-1.0294,-1.0574,-1.0574,-1.0575,-1.0575,0,-1.1303,-1.1188,-1.1208,-1.1131,-1.1004,-1.1031,-1.0904,-1.0891,-1.0856,-1.0776,-1.0825,-1.0748,-1.0768,-1.0692,-1.07,-1.0574,-1.0556,-1.0552,-1.0555,-1.0547,-1.0547,-1.0517,-1.0531,-1.0567,-1.0568,-1.057,-1.0571,0,-1.1064,-1.1073,-1.0941,-1.0913,-1.0903,-1.0811,-1.0786,-1.0713,-1.0712,-1.061,-1.0587,-1.0584,-1.0497,-1.0503,-1.0404,-1.041,-1.0255,-1.0275,-1.027,-1.0274,-1.017,-1.0179,-0.983,-0.9786,-1.0095,-1.0092,-1.009,0,-1.0909,-1.0823,-1.0787,-1.0738,-1.0714,-1.0635,-1.0588,-1.0612,-1.0561,-1.0505,-1.0437,-1.0356,-1.0292,-1.0149,-1.0137,-1.0061,-1.0079,-0.9963,-1.0068,-1.0063,-1.0076,-1.0081,-1.0072,-0.9941,-0.9937,-0.9935,-0.9932,0,-1.0632,-1.0641,-1.0574,-1.0507,-1.0451,-1.0399,-1.0352,-1.0309,-1.0328,-1.0268,-1.0181,-1.0132,-1.0033,-0.995,-0.9879,-0.9856,-0.9896,-0.99,-0.9872,-0.9861,-0.9862,-0.986,-1.0212,-0.9907,-0.991,-0.9911,-0.9913,-0.9914,-1.0429,-1.0356,-1.032,-1.0243,-1.0211,-1.0167,-1.0097,-1.0088,-1.0018,-0.9941,-0.9959,-0.9861,-0.9819,-0.9729,-0.9699,-0.9621,-0.9663,-0.9622,-0.9612,-0.9601,-0.9589,-0.9876,-0.9608,-0.9609,-0.961,-0.9611,-0.9611,0,-1.0154,-1.0135,-1.0064,-0.9999,-0.9938,-0.9986,-0.9937,-0.9882,-0.9796,-0.9755,-0.9693,-0.9593,-0.9514,-0.9497,-0.9421,-0.9363,-0.9379,-0.9342,-0.9345,-0.9339,-0.9556,-0.9588,-0.933,-0.933,-0.933,-0.933,-0.933,-0.933,-1.0003,-0.9882,-0.9887,-0.9751,-0.9732,-0.9639,-0.9607,-0.9566,-0.9534,-0.9422,-0.9358,-0.9349,-0.9317,-0.924,-0.9169,-0.9166,-0.9135,-0.909,-0.9094,-0.9296,-0.9324,-0.9351,-0.9381,-0.9083,-0.9083,-0.8884,-0.8882,-0.888]}]]